Location: Fredericton
(45.9636°N, 66.6431°W)
Time: 04:04:20
(UTC-03:00)

Envisat - Pass Details

Date: 21 January 2022
Orbit: 764 x 765 km, 98.2° (Epoch: 16 May)

Event Time Altitude Azimuth Distance (km) Brightness Sun altitude
Rises 05:04:22 0° 17° (NNE) 3,241 6.5 -30.2°
Reaches altitude 10° 05:06:44 10° 22° (NNE) 2,311 5.7 -29.8°
Maximum altitude 05:11:45 56° 100° (E) 909 3.6 -29.0°
Drops below altitude 10° 05:16:42 10° 179° (S) 2,295 5.5 -28.1°
Sets 05:19:03 0° 183° (S) 3,217 6.2 -27.7°
